Location: *
(51.8167°N, 12.5000°E)
Time: 06:04:16
(UTC+00:00)

Terra - Pass Details

Date: 16 September 2019
Orbit: 701 x 703 km, 98.2° (Epoch: 22 October)

Event Time Altitude Azimuth Distance (km) Brightness Sun altitude
Exits shadow 21:57:27 24° 299° (WNW) 1,433 3.8 -33.9°
Drops below altitude 10° 22:00:04 10° 327° (NNW) 2,183 5.1 -34.0°
Sets 22:02:35 0° 338° (NNW) 3,107 6.2 -34.1°
